| time (UTC) | temp F | wind direction | speed MPH | gust MPH | rain 1hr in | rain 24hr in | rain mn in | humidity % | barometer mb |
| 20260504015204 | 75 | 159 | 2.0 | 6.0 | 0.00 | 0.00 | 0.00 | 32 | 1007.9 |
| 20260504015104 | 76 | 158 | 2.0 | 6.0 | 0.00 | 0.00 | 0.00 | 32 | 1007.9 |
| 20260504015004 | 76 | 160 | 2.0 | 6.0 | 0.00 | 0.00 | 0.00 | 32 | 1007.8 |
| 20260504014805 | 76 | 161 | 2.0 | 6.0 | 0.00 | 0.00 | 0.00 | 31 | 1007.8 |
| 20260504014504 | 76 | 159 | 2.0 | 6.0 | 0.00 | 0.00 | 0.00 | 31 | 1007.8 |
| 20260504014104 | 76 | 154 | 2.0 | 6.0 | 0.00 | 0.00 | 0.00 | 31 | 1007.8 |
| 20260504013904 | 76 | 154 | 2.0 | 6.0 | 0.00 | 0.00 | 0.00 | 31 | 1007.8 |
| 20260504013704 | 76 | 156 | 2.0 | 6.0 | 0.00 | 0.00 | 0.00 | 31 | 1007.8 |
| 20260504013604 | 76 | 156 | 2.0 | 5.0 | 0.00 | 0.00 | 0.00 | 31 | 1007.8 |
| 20260504013304 | 77 | 165 | 2.0 | 6.0 | 0.00 | 0.00 | 0.00 | 30 | 1007.8 |
| 20260504013205 | 77 | 164 | 2.0 | 6.0 | 0.00 | 0.00 | 0.00 | 30 | 1007.8 |
| 20260504013105 | 77 | 163 | 2.0 | 6.0 | 0.00 | 0.00 | 0.00 | 30 | 1007.8 |
| 20260504013005 | 77 | 162 | 2.0 | 6.0 | 0.00 | 0.00 | 0.00 | 30 | 1007.8 |
| 20260504012904 | 77 | 162 | 2.0 | 6.0 | 0.00 | 0.00 | 0.00 | 30 | 1007.8 |
| 20260504012804 | 77 | 162 | 2.0 | 6.0 | 0.00 | 0.00 | 0.00 | 30 | 1007.8 |
| 20260504012705 | 77 | 162 | 2.0 | 6.0 | 0.00 | 0.00 | 0.00 | 30 | 1007.8 |
| 20260504012604 | 77 | 162 | 2.0 | 6.0 | 0.00 | 0.00 | 0.00 | 30 | 1007.8 |
| 20260504012504 | 77 | 158 | 2.0 | 6.0 | 0.00 | 0.00 | 0.00 | 30 | 1007.8 |
| 20260504012304 | 77 | 157 | 2.0 | 5.0 | 0.00 | 0.00 | 0.00 | 30 | 1007.8 |
| 20260504012205 | 78 | 161 | 2.0 | 6.0 | 0.00 | 0.00 | 0.00 | 29 | 1007.8 |
| 20260504012005 | 78 | 165 | 2.0 | 6.0 | 0.00 | 0.00 | 0.00 | 29 | 1007.8 |
| 20260504011804 | 78 | 165 | 3.0 | 6.0 | 0.00 | 0.00 | 0.00 | 29 | 1007.7 |
| 20260504011704 | 78 | 171 | 3.0 | 8.0 | 0.00 | 0.00 | 0.00 | 29 | 1007.7 |
| 20260504011604 | 78 | 172 | 3.0 | 8.0 | 0.00 | 0.00 | 0.00 | 29 | 1007.7 |
| 20260504011504 | 78 | 171 | 3.0 | 8.0 | 0.00 | 0.00 | 0.00 | 29 | 1007.7 |
| 20260504011305 | 78 | 175 | 3.0 | 12.0 | 0.00 | 0.00 | 0.00 | 28 | 1007.8 |
| 20260504011204 | 78 | 177 | 3.0 | 12.0 | 0.00 | 0.00 | 0.00 | 28 | 1007.7 |
| 20260504011104 | 78 | 177 | 3.0 | 12.0 | 0.00 | 0.00 | 0.00 | 28 | 1007.8 |
| 20260504011004 | 79 | 181 | 3.0 | 12.0 | 0.00 | 0.00 | 0.00 | 28 | 1007.8 |
| 20260504010904 | 79 | 181 | 3.0 | 12.0 | 0.00 | 0.00 | 0.00 | 28 | 1007.8 |
| 20260504010804 | 79 | 182 | 3.0 | 12.0 | 0.00 | 0.00 | 0.00 | 28 | 1007.8 |
| 20260504010705 | 79 | 179 | 3.0 | 12.0 | 0.00 | 0.00 | 0.00 | 28 | 1007.8 |
| 20260504010605 | 79 | 181 | 3.0 | 12.0 | 0.00 | 0.00 | 0.00 | 28 | 1007.9 |
| 20260504010504 | 79 | 181 | 3.0 | 12.0 | 0.00 | 0.00 | 0.00 | 28 | 1007.9 |
| 20260504010405 | 79 | 183 | 3.0 | 12.0 | 0.00 | 0.00 | 0.00 | 27 | 1007.9 |
| 20260504010305 | 79 | 183 | 3.0 | 9.0 | 0.00 | 0.00 | 0.00 | 28 | 1007.9 |
| 20260504010205 | 79 | 184 | 4.0 | 9.0 | 0.00 | 0.00 | 0.00 | 27 | 1007.9 |
| 20260504010005 | 79 | 184 | 4.0 | 10.0 | 0.00 | 0.00 | 0.00 | 28 | 1007.9 |
| 20260504005905 | 80 | 184 | 4.0 | 10.0 | 0.00 | 0.00 | 0.00 | 28 | 1007.8 |
| 20260504005805 | 80 | 186 | 4.0 | 11.0 | 0.00 | 0.00 | 0.00 | 27 | 1007.8 |
| 20260504005705 | 80 | 186 | 5.0 | 11.0 | 0.00 | 0.00 | 0.00 | 28 | 1007.8 |
| 20260504005505 | 80 | 190 | 5.0 | 11.0 | 0.00 | 0.00 | 0.00 | 27 | 1007.9 |
| 20260504005405 | 80 | 188 | 5.0 | 11.0 | 0.00 | 0.00 | 0.00 | 27 | 1007.9 |
| 20260504005305 | 80 | 189 | 5.0 | 11.0 | 0.00 | 0.00 | 0.00 | 27 | 1007.8 |
| 20260504005205 | 80 | 189 | 5.0 | 11.0 | 0.00 | 0.00 | 0.00 | 27 | 1007.9 |
| 20260504005105 | 80 | 188 | 4.0 | 11.0 | 0.00 | 0.00 | 0.00 | 27 | 1007.9 |
| 20260504005005 | 80 | 187 | 4.0 | 11.0 | 0.00 | 0.00 | 0.00 | 27 | 1007.8 |
| 20260504004704 | 80 | 189 | 3.0 | 9.0 | 0.00 | 0.00 | 0.00 | 27 | 1007.9 |
| 20260504004605 | 80 | 186 | 3.0 | 9.0 | 0.00 | 0.00 | 0.00 | 27 | 1008.0 |
| 20260504004505 | 80 | 188 | 3.0 | 10.0 | 0.00 | 0.00 | 0.00 | 26 | 1008.0 |
| 20260504004405 | 80 | 189 | 3.0 | 10.0 | 0.00 | 0.00 | 0.00 | 26 | 1008.0 |
| 20260504004305 | 81 | 187 | 3.0 | 10.0 | 0.00 | 0.00 | 0.00 | 27 | 1008.0 |
| 20260504004205 | 81 | 187 | 4.0 | 10.0 | 0.00 | 0.00 | 0.00 | 27 | 1008.0 |
| 20260504004005 | 81 | 189 | 4.0 | 10.0 | 0.00 | 0.00 | 0.00 | 26 | 1008.1 |
| 20260504003905 | 81 | 190 | 4.0 | 10.0 | 0.00 | 0.00 | 0.00 | 26 | 1008.0 |
| 20260504003805 | 81 | 190 | 4.0 | 10.0 | 0.00 | 0.00 | 0.00 | 26 | 1008.0 |
| 20260504003705 | 81 | 191 | 4.0 | 10.0 | 0.00 | 0.00 | 0.00 | 26 | 1008.1 |
| 20260504003605 | 81 | 191 | 4.0 | 10.0 | 0.00 | 0.00 | 0.00 | 26 | 1008.1 |
| 20260504003505 | 81 | 190 | 4.0 | 9.0 | 0.00 | 0.00 | 0.00 | 26 | 1008.1 |
| 20260504003405 | 81 | 189 | 4.0 | 9.0 | 0.00 | 0.00 | 0.00 | 26 | 1008.1 |
| 20260504003304 | 81 | 191 | 4.0 | 9.0 | 0.00 | 0.00 | 0.00 | 26 | 1008.1 |
| 20260504003205 | 81 | 192 | 4.0 | 9.0 | 0.00 | 0.00 | 0.00 | 25 | 1008.1 |
| 20260504003105 | 81 | 190 | 4.0 | 9.0 | 0.00 | 0.00 | 0.00 | 25 | 1008.1 |
| 20260504003005 | 81 | 189 | 4.0 | 9.0 | 0.00 | 0.00 | 0.00 | 26 | 1008.1 |
| 20260504002905 | 82 | 190 | 4.0 | 9.0 | 0.00 | 0.00 | 0.00 | 26 | 1008.1 |
| 20260504002805 | 81 | 188 | 4.0 | 9.0 | 0.00 | 0.00 | 0.00 | 25 | 1008.2 |
| 20260504002705 | 82 | 184 | 4.0 | 9.0 | 0.00 | 0.00 | 0.00 | 26 | 1008.2 |
| 20260504002604 | 81 | 184 | 4.0 | 9.0 | 0.00 | 0.00 | 0.00 | 26 | 1008.2 |
| 20260504002505 | 81 | 182 | 4.0 | 9.0 | 0.00 | 0.00 | 0.00 | 25 | 1008.2 |
| 20260504002205 | 81 | 181 | 4.0 | 10.0 | 0.00 | 0.00 | 0.00 | 26 | 1008.2 |
| 20260504002105 | 81 | 187 | 5.0 | 15.0 | 0.00 | 0.00 | 0.00 | 26 | 1008.2 |
| 20260504002005 | 82 | 192 | 5.0 | 15.0 | 0.00 | 0.00 | 0.00 | 26 | 1008.2 |
| 20260504001904 | 82 | 192 | 5.0 | 15.0 | 0.00 | 0.00 | 0.00 | 26 | 1008.2 |
| 20260504001805 | 82 | 194 | 6.0 | 15.0 | 0.00 | 0.00 | 0.00 | 26 | 1008.2 |
| 20260504001705 | 82 | 197 | 6.0 | 15.0 | 0.00 | 0.00 | 0.00 | 25 | 1008.2 |
| 20260504001605 | 82 | 197 | 6.0 | 15.0 | 0.00 | 0.00 | 0.00 | 25 | 1008.2 |
| 20260504001505 | 82 | 196 | 5.0 | 15.0 | 0.00 | 0.00 | 0.00 | 25 | 1008.2 |
| 20260504001405 | 82 | 195 | 6.0 | 15.0 | 0.00 | 0.00 | 0.00 | 25 | 1008.2 |
| 20260504001305 | 82 | 196 | 6.0 | 15.0 | 0.00 | 0.00 | 0.00 | 25 | 1008.2 |
| 20260504001204 | 82 | 198 | 5.0 | 15.0 | 0.00 | 0.00 | 0.00 | 25 | 1008.2 |
| 20260504001105 | 82 | 195 | 5.0 | 14.0 | 0.00 | 0.00 | 0.00 | 25 | 1008.3 |
| 20260504001005 | 82 | 190 | 5.0 | 13.0 | 0.00 | 0.00 | 0.00 | 25 | 1008.3 |
| 20260504000905 | 82 | 189 | 5.0 | 13.0 | 0.00 | 0.00 | 0.00 | 25 | 1008.3 |
| 20260504000805 | 82 | 187 | 4.0 | 13.0 | 0.00 | 0.00 | 0.00 | 25 | 1008.3 |
| 20260504000705 | 82 | 184 | 5.0 | 13.0 | 0.00 | 0.00 | 0.00 | 25 | 1008.4 |
| 20260504000605 | 82 | 185 | 5.0 | 13.0 | 0.00 | 0.00 | 0.00 | 25 | 1008.4 |
| 20260504000504 | 82 | 189 | 5.0 | 13.0 | 0.00 | 0.00 | 0.00 | 25 | 1008.4 |
| 20260504000205 | 82 | 192 | 5.0 | 13.0 | 0.00 | 0.00 | 0.00 | 25 | 1008.4 |
| 20260504000105 | 82 | 192 | 5.0 | 13.0 | 0.00 | 0.00 | 0.00 | 25 | 1008.4 |
| 20260504000005 | 82 | 194 | 5.0 | 13.0 | 0.00 | 0.00 | 0.00 | 25 | 1008.4 |
| 20260503235904 | 82 | 195 | 6.0 | 13.0 | 0.00 | 0.00 | 0.00 | 25 | 1008.4 |
| 20260503235805 | 82 | 196 | 6.0 | 13.0 | 0.00 | 0.00 | 0.00 | 24 | 1008.4 |
| 20260503235705 | 82 | 198 | 6.0 | 13.0 | 0.00 | 0.00 | 0.00 | 25 | 1008.4 |
| 20260503235505 | 82 | 194 | 6.0 | 14.0 | 0.00 | 0.00 | 0.00 | 25 | 1008.4 |
| 20260503235405 | 82 | 191 | 6.0 | 14.0 | 0.00 | 0.00 | 0.00 | 24 | 1008.5 |
| 20260503235305 | 82 | 193 | 5.0 | 14.0 | 0.00 | 0.00 | 0.00 | 25 | 1008.5 |
| 20260503235205 | 83 | 193 | 6.0 | 14.0 | 0.00 | 0.00 | 0.00 | 24 | 1008.5 |
| 20260503235005 | 83 | 196 | 6.0 | 14.0 | 0.00 | 0.00 | 0.00 | 24 | 1008.4 |
| 20260503234804 | 83 | 195 | 5.0 | 14.0 | 0.00 | 0.00 | 0.00 | 24 | 1008.4 |
| 20260503234705 | 83 | 193 | 5.0 | 14.0 | 0.00 | 0.00 | 0.00 | 24 | 1008.5 |
| 20260503234605 | 83 | 196 | 5.0 | 14.0 | 0.00 | 0.00 | 0.00 | 23 | 1008.4 |
| 20260503234505 | 83 | 198 | 5.0 | 12.0 | 0.00 | 0.00 | 0.00 | 24 | 1008.5 |
| 20260503234305 | 83 | 196 | 5.0 | 15.0 | 0.00 | 0.00 | 0.00 | 24 | 1008.5 |
| 20260503234104 | 83 | 192 | 5.0 | 15.0 | 0.00 | 0.00 | 0.00 | 24 | 1008.6 |
| 20260503234005 | 84 | 190 | 5.0 | 15.0 | 0.00 | 0.00 | 0.00 | 23 | 1008.5 |
| 20260503233905 | 84 | 191 | 5.0 | 15.0 | 0.00 | 0.00 | 0.00 | 23 | 1008.6 |
| 20260503233805 | 84 | 190 | 5.0 | 15.0 | 0.00 | 0.00 | 0.00 | 23 | 1008.5 |
| 20260503233605 | 84 | 188 | 5.0 | 15.0 | 0.00 | 0.00 | 0.00 | 23 | 1008.6 |
| 20260503233504 | 84 | 189 | 5.0 | 15.0 | 0.00 | 0.00 | 0.00 | 22 | 1008.6 |
| 20260503233404 | 84 | 191 | 5.0 | 15.0 | 0.00 | 0.00 | 0.00 | 24 | 1008.6 |
| 20260503233304 | 84 | 192 | 5.0 | 11.0 | 0.00 | 0.00 | 0.00 | 24 | 1008.6 |
| 20260503233205 | 84 | 192 | 5.0 | 12.0 | 0.00 | 0.00 | 0.00 | 24 | 1008.6 |
| 20260503232905 | 84 | 195 | 6.0 | 13.0 | 0.00 | 0.00 | 0.00 | 23 | 1008.6 |
| 20260503232805 | 84 | 195 | 6.0 | 13.0 | 0.00 | 0.00 | 0.00 | 23 | 1008.7 |
| 20260503232705 | 84 | 195 | 7.0 | 13.0 | 0.00 | 0.00 | 0.00 | 23 | 1008.6 |
| 20260503232605 | 84 | 194 | 6.0 | 13.0 | 0.00 | 0.00 | 0.00 | 23 | 1008.7 |
| 20260503232504 | 84 | 194 | 7.0 | 13.0 | 0.00 | 0.00 | 0.00 | 22 | 1008.7 |
| 20260503232404 | 84 | 193 | 7.0 | 18.0 | 0.00 | 0.00 | 0.00 | 23 | 1008.7 |
| 20260503232306 | 84 | 194 | 7.0 | 18.0 | 0.00 | 0.00 | 0.00 | 23 | 1008.7 |
| 20260503232205 | 84 | 194 | 6.0 | 18.0 | 0.00 | 0.00 | 0.00 | 22 | 1008.7 |
| 20260503232105 | 84 | 194 | 6.0 | 18.0 | 0.00 | 0.00 | 0.00 | 23 | 1008.8 |
| 20260503231905 | 84 | 197 | 6.0 | 18.0 | 0.00 | 0.00 | 0.00 | 23 | 1008.7 |
| 20260503231804 | 84 | 198 | 6.0 | 18.0 | 0.00 | 0.00 | 0.00 | 23 | 1008.7 |
| 20260503231704 | 84 | 200 | 6.0 | 18.0 | 0.00 | 0.00 | 0.00 | 23 | 1008.7 |
| 20260503231604 | 84 | 200 | 6.0 | 18.0 | 0.00 | 0.00 | 0.00 | 23 | 1008.7 |
| 20260503231504 | 84 | 200 | 5.0 | 18.0 | 0.00 | 0.00 | 0.00 | 23 | 1008.7 |
| 20260503231405 | 84 | 201 | 5.0 | 15.0 | 0.00 | 0.00 | 0.00 | 24 | 1008.6 |
| 20260503231305 | 85 | 200 | 6.0 | 16.0 | 0.00 | 0.00 | 0.00 | 23 | 1008.7 |
| 20260503231105 | 85 | 200 | 6.0 | 16.0 | 0.00 | 0.00 | 0.00 | 23 | 1008.7 |
| 20260503231005 | 85 | 201 | 6.0 | 17.0 | 0.00 | 0.00 | 0.00 | 23 | 1008.7 |
| 20260503230904 | 85 | 201 | 6.0 | 17.0 | 0.00 | 0.00 | 0.00 | 23 | 1008.8 |
| 20260503230805 | 85 | 205 | 6.0 | 17.0 | 0.00 | 0.00 | 0.00 | 23 | 1008.7 |
| 20260503230704 | 85 | 204 | 7.0 | 17.0 | 0.00 | 0.00 | 0.00 | 23 | 1008.8 |
| 20260503230505 | 85 | 207 | 7.0 | 17.0 | 0.00 | 0.00 | 0.00 | 23 | 1008.8 |
| 20260503230405 | 85 | 206 | 7.0 | 17.0 | 0.00 | 0.00 | 0.00 | 23 | 1008.8 |
| 20260503230305 | 85 | 205 | 6.0 | 17.0 | 0.00 | 0.00 | 0.00 | 23 | 1008.8 |
| 20260503230205 | 85 | 205 | 6.0 | 17.0 | 0.00 | 0.00 | 0.00 | 23 | 1008.8 |
| 20260503230105 | 85 | 203 | 6.0 | 17.0 | 0.00 | 0.00 | 0.00 | 22 | 1008.8 |
| 20260503225905 | 85 | 198 | 6.0 | 14.0 | 0.00 | 0.00 | 0.00 | 24 | 1008.8 |
| 20260503225804 | 85 | 194 | 6.0 | 14.0 | 0.00 | 0.00 | 0.00 | 23 | 1008.8 |
| 20260503225605 | 85 | 195 | 5.0 | 13.0 | 0.00 | 0.00 | 0.00 | 23 | 1008.9 |
| 20260503225505 | 85 | 197 | 6.0 | 13.0 | 0.00 | 0.00 | 0.00 | 23 | 1008.8 |
| 20260503225405 | 85 | 198 | 5.0 | 13.0 | 0.00 | 0.00 | 0.00 | 23 | 1008.8 |
| 20260503225305 | 85 | 198 | 6.0 | 13.0 | 0.00 | 0.00 | 0.00 | 23 | 1008.8 |
| 20260503225205 | 85 | 201 | 6.0 | 13.0 | 0.00 | 0.00 | 0.00 | 22 | 1008.8 |
| 20260503225104 | 85 | 203 | 6.0 | 13.0 | 0.00 | 0.00 | 0.00 | 23 | 1008.8 |
| 20260503225004 | 85 | 203 | 6.0 | 13.0 | 0.00 | 0.00 | 0.00 | 23 | 1008.8 |
| 20260503224805 | 85 | 199 | 6.0 | 14.0 | 0.00 | 0.00 | 0.00 | 22 | 1008.8 |
| 20260503224705 | 85 | 196 | 6.0 | 14.0 | 0.00 | 0.00 | 0.00 | 22 | 1008.8 |
| 20260503224505 | 85 | 196 | 6.0 | 14.0 | 0.00 | 0.00 | 0.00 | 21 | 1008.8 |
| 20260503224405 | 85 | 198 | 6.0 | 14.0 | 0.00 | 0.00 | 0.00 | 21 | 1008.9 |
| 20260503224305 | 85 | 199 | 6.0 | 14.0 | 0.00 | 0.00 | 0.00 | 21 | 1008.9 |
| 20260503224105 | 85 | 201 | 7.0 | 14.0 | 0.00 | 0.00 | 0.00 | 22 | 1008.9 |
| 20260503223904 | 85 | 207 | 6.0 | 14.0 | 0.00 | 0.00 | 0.00 | 21 | 1009.0 |
| 20260503223804 | 85 | 208 | 6.0 | 14.0 | 0.00 | 0.00 | 0.00 | 22 | 1009.0 |
| 20260503223704 | 85 | 207 | 7.0 | 14.0 | 0.00 | 0.00 | 0.00 | 21 | 1008.9 |
| 20260503223605 | 85 | 207 | 7.0 | 14.0 | 0.00 | 0.00 | 0.00 | 20 | 1008.9 |
| 20260503223505 | 85 | 207 | 7.0 | 14.0 | 0.00 | 0.00 | 0.00 | 21 | 1008.9 |
| 20260503223405 | 85 | 206 | 6.0 | 14.0 | 0.00 | 0.00 | 0.00 | 20 | 1008.9 |
| 20260503223305 | 85 | 206 | 6.0 | 14.0 | 0.00 | 0.00 | 0.00 | 21 | 1008.9 |
| 20260503223205 | 85 | 206 | 6.0 | 14.0 | 0.00 | 0.00 | 0.00 | 20 | 1009.0 |
| 20260503223005 | 85 | 203 | 7.0 | 15.0 | 0.00 | 0.00 | 0.00 | 20 | 1009.1 |
| 20260503222904 | 85 | 199 | 7.0 | 15.0 | 0.00 | 0.00 | 0.00 | 20 | 1009.0 |
| 20260503222805 | 85 | 198 | 7.0 | 15.0 | 0.00 | 0.00 | 0.00 | 21 | 1009.0 |
| 20260503222705 | 85 | 199 | 7.0 | 15.0 | 0.00 | 0.00 | 0.00 | 20 | 1009.0 |
| 20260503222605 | 85 | 199 | 7.0 | 15.0 | 0.00 | 0.00 | 0.00 | 20 | 1009.0 |
| 20260503222505 | 85 | 199 | 7.0 | 15.0 | 0.00 | 0.00 | 0.00 | 21 | 1009.0 |
| 20260503222404 | 85 | 199 | 7.0 | 22.0 | 0.00 | 0.00 | 0.00 | 22 | 1009.0 |
| 20260503222305 | 85 | 199 | 7.0 | 22.0 | 0.00 | 0.00 | 0.00 | 22 | 1009.1 |
| 20260503222104 | 85 | 202 | 7.0 | 22.0 | 0.00 | 0.00 | 0.00 | 21 | 1009.1 |
| 20260503222004 | 85 | 205 | 7.0 | 22.0 | 0.00 | 0.00 | 0.00 | 20 | 1009.0 |
| 20260503221905 | 85 | 206 | 7.0 | 22.0 | 0.00 | 0.00 | 0.00 | 21 | 1009.1 |
| 20260503221705 | 85 | 209 | 7.0 | 22.0 | 0.00 | 0.00 | 0.00 | 21 | 1009.1 |
| 20260503221605 | 85 | 207 | 6.0 | 22.0 | 0.00 | 0.00 | 0.00 | 20 | 1009.1 |
| 20260503221505 | 86 | 209 | 6.0 | 22.0 | 0.00 | 0.00 | 0.00 | 21 | 1009.1 |
| 20260503221405 | 86 | 210 | 7.0 | 15.0 | 0.00 | 0.00 | 0.00 | 21 | 1009.0 |
| 20260503221304 | 85 | 211 | 7.0 | 15.0 | 0.00 | 0.00 | 0.00 | 21 | 1009.0 |
| 20260503221104 | 85 | 210 | 8.0 | 15.0 | 0.00 | 0.00 | 0.00 | 20 | 1009.1 |
| 20260503221004 | 85 | 211 | 8.0 | 15.0 | 0.00 | 0.00 | 0.00 | 21 | 1009.1 |
| 20260503220904 | 85 | 210 | 8.0 | 15.0 | 0.00 | 0.00 | 0.00 | 21 | 1009.1 |
| 20260503220804 | 85 | 209 | 8.0 | 15.0 | 0.00 | 0.00 | 0.00 | 20 | 1009.1 |
| 20260503220704 | 85 | 210 | 8.0 | 15.0 | 0.00 | 0.00 | 0.00 | 21 | 1009.2 |
| 20260503220605 | 85 | 211 | 8.0 | 17.0 | 0.00 | 0.00 | 0.00 | 21 | 1009.2 |
| 20260503220505 | 85 | 210 | 8.0 | 17.0 | 0.00 | 0.00 | 0.00 | 20 | 1009.1 |
| 20260503220405 | 85 | 211 | 8.0 | 17.0 | 0.00 | 0.00 | 0.00 | 20 | 1009.2 |
| 20260503220205 | 86 | 210 | 7.0 | 20.0 | 0.00 | 0.00 | 0.00 | 20 | 1009.2 |
| 20260503220105 | 86 | 210 | 7.0 | 20.0 | 0.00 | 0.00 | 0.00 | 21 | 1009.2 |
| 20260503220004 | 86 | 209 | 7.0 | 20.0 | 0.00 | 0.00 | 0.00 | 21 | 1009.1 |
| 20260503215904 | 86 | 212 | 7.0 | 20.0 | 0.00 | 0.00 | 0.00 | 21 | 1009.0 |
| 20260503215804 | 86 | 214 | 6.0 | 20.0 | 0.00 | 0.00 | 0.00 | 21 | 1009.1 |
| 20260503215704 | 86 | 216 | 6.0 | 20.0 | 0.00 | 0.00 | 0.00 | 20 | 1009.1 |
| 20260503215604 | 86 | 220 | 6.0 | 20.0 | 0.00 | 0.00 | 0.00 | 20 | 1009.0 |
| 20260503215505 | 86 | 221 | 6.0 | 20.0 | 0.00 | 0.00 | 0.00 | 22 | 1009.2 |
| 20260503215405 | 86 | 220 | 6.0 | 20.0 | 0.00 | 0.00 | 0.00 | 21 | 1009.2 |
| 20260503215305 | 86 | 220 | 5.0 | 20.0 | 0.00 | 0.00 | 0.00 | 21 | 1009.2 |
| 20260503215205 | 86 | 219 | 5.0 | 11.0 | 0.00 | 0.00 | 0.00 | 21 | 1009.3 |
| 20260503215105 | 86 | 219 | 5.0 | 11.0 | 0.00 | 0.00 | 0.00 | 21 | 1009.2 |
| 20260503215004 | 86 | 219 | 6.0 | 11.0 | 0.00 | 0.00 | 0.00 | 21 | 1009.3 |
| 20260503214904 | 86 | 215 | 6.0 | 16.0 | 0.00 | 0.00 | 0.00 | 21 | 1009.3 |
| 20260503214705 | 86 | 210 | 5.0 | 16.0 | 0.00 | 0.00 | 0.00 | 21 | 1009.3 |
| 20260503214605 | 86 | 207 | 6.0 | 16.0 | 0.00 | 0.00 | 0.00 | 22 | 1009.3 |
| 20260503214305 | 86 | 206 | 6.0 | 16.0 | 0.00 | 0.00 | 0.00 | 21 | 1009.4 |
| 20260503214204 | 86 | 207 | 6.0 | 16.0 | 0.00 | 0.00 | 0.00 | 21 | 1009.5 |
| 20260503214104 | 86 | 208 | 6.0 | 16.0 | 0.00 | 0.00 | 0.00 | 21 | 1009.5 |
| 20260503214004 | 86 | 209 | 5.0 | 16.0 | 0.00 | 0.00 | 0.00 | 20 | 1009.5 |
| 20260503213805 | 86 | 214 | 6.0 | 12.0 | 0.00 | 0.00 | 0.00 | 21 | 1009.5 |
| 20260503213705 | 86 | 216 | 6.0 | 14.0 | 0.00 | 0.00 | 0.00 | 20 | 1009.4 |
| 20260503213605 | 86 | 220 | 6.0 | 14.0 | 0.00 | 0.00 | 0.00 | 20 | 1009.5 |
| 20260503213505 | 86 | 222 | 7.0 | 14.0 | 0.00 | 0.00 | 0.00 | 19 | 1009.5 |
| 20260503213305 | 86 | 226 | 6.0 | 15.0 | 0.00 | 0.00 | 0.00 | 19 | 1009.6 |
| 20260503213204 | 86 | 228 | 7.0 | 15.0 | 0.00 | 0.00 | 0.00 | 18 | 1009.6 |
| 20260503213104 | 86 | 229 | 7.0 | 15.0 | 0.00 | 0.00 | 0.00 | 18 | 1009.6 |
| 20260503212905 | 86 | 230 | 7.0 | 21.0 | 0.00 | 0.00 | 0.00 | 19 | 1009.7 |
| 20260503212805 | 86 | 229 | 8.0 | 21.0 | 0.00 | 0.00 | 0.00 | 18 | 1009.7 |
| 20260503212705 | 86 | 226 | 8.0 | 21.0 | 0.00 | 0.00 | 0.00 | 18 | 1009.7 |
| 20260503212404 | 86 | 216 | 7.0 | 21.0 | 0.00 | 0.00 | 0.00 | 18 | 1009.7 |
| 20260503212305 | 86 | 214 | 8.0 | 21.0 | 0.00 | 0.00 | 0.00 | 18 | 1009.8 |
| 20260503212204 | 86 | 211 | 7.0 | 21.0 | 0.00 | 0.00 | 0.00 | 19 | 1009.8 |
| 20260503212104 | 86 | 208 | 7.0 | 21.0 | 0.00 | 0.00 | 0.00 | 20 | 1009.8 |
| 20260503212005 | 86 | 206 | 6.0 | 21.0 | 0.00 | 0.00 | 0.00 | 19 | 1009.8 |
| 20260503211905 | 86 | 207 | 6.0 | 21.0 | 0.00 | 0.00 | 0.00 | 20 | 1009.7 |
| 20260503211805 | 86 | 208 | 6.0 | 21.0 | 0.00 | 0.00 | 0.00 | 19 | 1009.7 |
| 20260503211705 | 86 | 212 | 6.0 | 17.0 | 0.00 | 0.00 | 0.00 | 19 | 1009.7 |
| 20260503211605 | 86 | 219 | 5.0 | 14.0 | 0.00 | 0.00 | 0.00 | 18 | 1009.7 |
| 20260503211505 | 86 | 221 | 5.0 | 14.0 | 0.00 | 0.00 | 0.00 | 19 | 1009.8 |
| 20260503211404 | 86 | 224 | 5.0 | 14.0 | 0.00 | 0.00 | 0.00 | 20 | 1009.9 |
| 20260503211304 | 86 | 223 | 5.0 | 14.0 | 0.00 | 0.00 | 0.00 | 19 | 1009.9 |
| 20260503211204 | 86 | 221 | 5.0 | 14.0 | 0.00 | 0.00 | 0.00 | 20 | 1009.9 |
| 20260503211105 | 86 | 220 | 5.0 | 14.0 | 0.00 | 0.00 | 0.00 | 20 | 1009.8 |
| 20260503211005 | 86 | 217 | 5.0 | 14.0 | 0.00 | 0.00 | 0.00 | 20 | 1009.8 |
| 20260503210905 | 86 | 216 | 5.0 | 14.0 | 0.00 | 0.00 | 0.00 | 20 | 1009.9 |
| 20260503210805 | 86 | 215 | 6.0 | 14.0 | 0.00 | 0.00 | 0.00 | 19 | 1009.9 |
| 20260503210705 | 86 | 213 | 5.0 | 14.0 | 0.00 | 0.00 | 0.00 | 20 | 1009.9 |
| 20260503210604 | 86 | 212 | 6.0 | 13.0 | 0.00 | 0.00 | 0.00 | 21 | 1010.0 |
| 20260503210504 | 86 | 210 | 6.0 | 14.0 | 0.00 | 0.00 | 0.00 | 20 | 1009.9 |
| 20260503210405 | 86 | 211 | 6.0 | 16.0 | 0.00 | 0.00 | 0.00 | 19 | 1010.0 |
| 20260503210204 | 86 | 210 | 6.0 | 16.0 | 0.00 | 0.00 | 0.00 | 21 | 1010.0 |
| 20260503210105 | 86 | 207 | 7.0 | 16.0 | 0.00 | 0.00 | 0.00 | 20 | 1010.0 |
| 20260503210005 | 86 | 206 | 7.0 | 16.0 | 0.00 | 0.00 | 0.00 | 20 | 1009.9 |
| 20260503205504 | 85 | 195 | 6.0 | 16.0 | 0.00 | 0.00 | 0.00 | 22 | 1010.1 |
| 20260503205304 | 85 | 191 | 6.0 | 16.0 | 0.00 | 0.00 | 0.00 | 21 | 1010.1 |
| 20260503205205 | 85 | 194 | 6.0 | 16.0 | 0.00 | 0.00 | 0.00 | 20 | 1010.1 |
| 20260503205105 | 85 | 200 | 6.0 | 16.0 | 0.00 | 0.00 | 0.00 | 22 | 1010.1 |
| 20260503205005 | 85 | 204 | 6.0 | 16.0 | 0.00 | 0.00 | 0.00 | 22 | 1010.2 |
| 20260503204905 | 85 | 209 | 6.0 | 16.0 | 0.00 | 0.00 | 0.00 | 21 | 1010.1 |
| 20260503204805 | 85 | 207 | 6.0 | 16.0 | 0.00 | 0.00 | 0.00 | 22 | 1010.2 |
| 20260503204705 | 85 | 210 | 6.0 | 16.0 | 0.00 | 0.00 | 0.00 | 22 | 1010.2 |
| 20260503204504 | 85 | 214 | 5.0 | 16.0 | 0.00 | 0.00 | 0.00 | 24 | 1010.2 |
| 20260503204404 | 85 | 223 | 5.0 | 15.0 | 0.00 | 0.00 | 0.00 | 22 | 1010.3 |
| 20260503204305 | 85 | 225 | 5.0 | 13.0 | 0.00 | 0.00 | 0.00 | 22 | 1010.3 |
| 20260503204205 | 85 | 224 | 5.0 | 13.0 | 0.00 | 0.00 | 0.00 | 22 | 1010.4 |
| 20260503204105 | 85 | 221 | 5.0 | 13.0 | 0.00 | 0.00 | 0.00 | 22 | 1010.4 |
| 20260503204005 | 85 | 221 | 5.0 | 13.0 | 0.00 | 0.00 | 0.00 | 22 | 1010.4 |
| 20260503203905 | 85 | 219 | 6.0 | 13.0 | 0.00 | 0.00 | 0.00 | 22 | 1010.4 |
| 20260503203805 | 85 | 218 | 5.0 | 13.0 | 0.00 | 0.00 | 0.00 | 21 | 1010.4 |
| 20260503203704 | 85 | 218 | 6.0 | 13.0 | 0.00 | 0.00 | 0.00 | 22 | 1010.5 |
| 20260503203604 | 85 | 217 | 6.0 | 13.0 | 0.00 | 0.00 | 0.00 | 22 | 1010.5 |
| 20260503203504 | 85 | 214 | 6.0 | 14.0 | 0.00 | 0.00 | 0.00 | 22 | 1010.6 |
| 20260503203405 | 85 | 208 | 7.0 | 18.0 | 0.00 | 0.00 | 0.00 | 23 | 1010.6 |
| 20260503203305 | 85 | 206 | 7.0 | 18.0 | 0.00 | 0.00 | 0.00 | 21 | 1010.5 |
| 20260503203105 | 85 | 204 | 7.0 | 18.0 | 0.00 | 0.00 | 0.00 | 22 | 1010.6 |
| 20260503203005 | 85 | 204 | 7.0 | 21.0 | 0.00 | 0.00 | 0.00 | 21 | 1010.6 |
| 20260503202905 | 85 | 205 | 7.0 | 21.0 | 0.00 | 0.00 | 0.00 | 21 | 1010.7 |
| 20260503202804 | 85 | 206 | 8.0 | 21.0 | 0.00 | 0.00 | 0.00 | 22 | 1010.7 |
| 20260503202604 | 85 | 207 | 8.0 | 21.0 | 0.00 | 0.00 | 0.00 | 21 | 1010.7 |
| 20260503202504 | 85 | 206 | 8.0 | 21.0 | 0.00 | 0.00 | 0.00 | 21 | 1010.7 |
| 20260503202404 | 85 | 205 | 8.0 | 21.0 | 0.00 | 0.00 | 0.00 | 21 | 1010.7 |
| 20260503202305 | 85 | 205 | 7.0 | 21.0 | 0.00 | 0.00 | 0.00 | 20 | 1010.8 |
| 20260503202205 | 85 | 205 | 7.0 | 21.0 | 0.00 | 0.00 | 0.00 | 21 | 1010.9 |
| 20260503202105 | 85 | 204 | 7.0 | 21.0 | 0.00 | 0.00 | 0.00 | 20 | 1010.8 |
| 20260503202005 | 85 | 204 | 7.0 | 19.0 | 0.00 | 0.00 | 0.00 | 21 | 1010.8 |
| 20260503201905 | 85 | 202 | 7.0 | 19.0 | 0.00 | 0.00 | 0.00 | 21 | 1010.8 |
| 20260503201804 | 85 | 201 | 7.0 | 19.0 | 0.00 | 0.00 | 0.00 | 20 | 1010.8 |
| 20260503201605 | 85 | 200 | 7.0 | 15.0 | 0.00 | 0.00 | 0.00 | 20 | 1010.7 |
| 20260503201505 | 85 | 204 | 6.0 | 15.0 | 0.00 | 0.00 | 0.00 | 19 | 1010.9 |
| 20260503201405 | 85 | 208 | 6.0 | 15.0 | 0.00 | 0.00 | 0.00 | 20 | 1010.9 |
| 20260503201305 | 85 | 213 | 6.0 | 15.0 | 0.00 | 0.00 | 0.00 | 20 | 1011.0 |
| 20260503201205 | 85 | 218 | 6.0 | 15.0 | 0.00 | 0.00 | 0.00 | 20 | 1011.0 |
| 20260503200904 | 85 | 228 | 6.0 | 14.0 | 0.00 | 0.00 | 0.00 | 20 | 1010.9 |
| 20260503200804 | 85 | 230 | 5.0 | 14.0 | 0.00 | 0.00 | 0.00 | 20 | 1011.0 |
| 20260503200705 | 85 | 231 | 6.0 | 12.0 | 0.00 | 0.00 | 0.00 | 20 | 1010.9 |
| 20260503200605 | 85 | 235 | 6.0 | 12.0 | 0.00 | 0.00 | 0.00 | 21 | 1011.1 |
| 20260503200505 | 85 | 235 | 6.0 | 12.0 | 0.00 | 0.00 | 0.00 | 20 | 1011.0 |
| 20260503200304 | 85 | 236 | 6.0 | 12.0 | 0.00 | 0.00 | 0.00 | 20 | 1011.0 |
| 20260503200204 | 85 | 232 | 6.0 | 11.0 | 0.00 | 0.00 | 0.00 | 20 | 1011.0 |
| 20260503200104 | 85 | 230 | 6.0 | 11.0 | 0.00 | 0.00 | 0.00 | 19 | 1011.1 |
| 20260503200005 | 85 | 228 | 6.0 | 11.0 | 0.00 | 0.00 | 0.00 | 20 | 1011.0 |
| 20260503195905 | 85 | 228 | 6.0 | 11.0 | 0.00 | 0.00 | 0.00 | 19 | 1011.1 |
| 20260503195805 | 85 | 226 | 6.0 | 17.0 | 0.00 | 0.00 | 0.00 | 20 | 1011.1 |
| 20260503195705 | 85 | 228 | 6.0 | 17.0 | 0.00 | 0.00 | 0.00 | 20 | 1011.1 |
| 20260503195605 | 84 | 229 | 6.0 | 17.0 | 0.00 | 0.00 | 0.00 | 20 | 1011.1 |
| 20260503195505 | 84 | 229 | 6.0 | 17.0 | 0.00 | 0.00 | 0.00 | 20 | 1011.1 |
| 20260503195405 | 84 | 231 | 6.0 | 17.0 | 0.00 | 0.00 | 0.00 | 19 | 1011.1 |
| 20260503195305 | 84 | 229 | 6.0 | 17.0 | 0.00 | 0.00 | 0.00 | 20 | 1011.1 |
| 20260503195205 | 84 | 228 | 6.0 | 17.0 | 0.00 | 0.00 | 0.00 | 19 | 1011.3 |
| 20260503195104 | 84 | 226 | 6.0 | 17.0 | 0.00 | 0.00 | 0.00 | 19 | 1011.2 |
| 20260503195005 | 84 | 224 | 6.0 | 17.0 | 0.00 | 0.00 | 0.00 | 20 | 1011.2 |
| 20260503194805 | 85 | 225 | 5.0 | 16.0 | 0.00 | 0.00 | 0.00 | 18 | 1011.3 |
| 20260503194605 | 85 | 222 | 5.0 | 16.0 | 0.00 | 0.00 | 0.00 | 20 | 1011.3 |
| 20260503194505 | 85 | 217 | 5.0 | 16.0 | 0.00 | 0.00 | 0.00 | 22 | 1011.3 |
| 20260503194405 | 85 | 214 | 5.0 | 15.0 | 0.00 | 0.00 | 0.00 | 22 | 1011.2 |
| 20260503194304 | 85 | 217 | 5.0 | 15.0 | 0.00 | 0.00 | 0.00 | 22 | 1011.2 |
| 20260503194205 | 85 | 222 | 5.0 | 15.0 | 0.00 | 0.00 | 0.00 | 20 | 1011.2 |
| 20260503194104 | 85 | 226 | 5.0 | 15.0 | 0.00 | 0.00 | 0.00 | 20 | 1011.3 |
| 20260503194004 | 85 | 227 | 5.0 | 15.0 | 0.00 | 0.00 | 0.00 | 21 | 1011.4 |
| 20260503193904 | 85 | 228 | 5.0 | 15.0 | 0.00 | 0.00 | 0.00 | 20 | 1011.4 |
| 20260503193805 | 85 | 228 | 5.0 | 15.0 | 0.00 | 0.00 | 0.00 | 20 | 1011.3 |
| 20260503193605 | 85 | 232 | 4.0 | 15.0 | 0.00 | 0.00 | 0.00 | 21 | 1011.4 |
| 20260503193505 | 85 | 238 | 4.0 | 15.0 | 0.00 | 0.00 | 0.00 | 20 | 1011.4 |
| 20260503193404 | 85 | 239 | 4.0 | 15.0 | 0.00 | 0.00 | 0.00 | 19 | 1011.4 |
| 20260503193304 | 85 | 239 | 4.0 | 15.0 | 0.00 | 0.00 | 0.00 | 20 | 1011.4 |
| 20260503193205 | 85 | 236 | 4.0 | 13.0 | 0.00 | 0.00 | 0.00 | 20 | 1011.4 |
| 20260503193104 | 85 | 236 | 4.0 | 13.0 | 0.00 | 0.00 | 0.00 | 22 | 1011.4 |
| 20260503193005 | 85 | 234 | 5.0 | 13.0 | 0.00 | 0.00 | 0.00 | 20 | 1011.3 |
| 20260503192905 | 85 | 235 | 5.0 | 13.0 | 0.00 | 0.00 | 0.00 | 20 | 1011.4 |
| 20260503192805 | 85 | 236 | 5.0 | 13.0 | 0.00 | 0.00 | 0.00 | 19 | 1011.4 |
| 20260503192705 | 85 | 235 | 6.0 | 13.0 | 0.00 | 0.00 | 0.00 | 19 | 1011.5 |
| 20260503192605 | 85 | 233 | 6.0 | 14.0 | 0.00 | 0.00 | 0.00 | 19 | 1011.5 |
| 20260503192504 | 85 | 233 | 6.0 | 14.0 | 0.00 | 0.00 | 0.00 | 19 | 1011.5 |
| 20260503192404 | 85 | 231 | 7.0 | 14.0 | 0.00 | 0.00 | 0.00 | 21 | 1011.5 |
| 20260503192305 | 85 | 228 | 7.0 | 14.0 | 0.00 | 0.00 | 0.00 | 19 | 1011.5 |
| 20260503192204 | 84 | 228 | 6.0 | 14.0 | 0.00 | 0.00 | 0.00 | 21 | 1011.5 |
| 20260503192104 | 84 | 227 | 6.0 | 14.0 | 0.00 | 0.00 | 0.00 | 20 | 1011.6 |
| 20260503191905 | 84 | 228 | 7.0 | 14.0 | 0.00 | 0.00 | 0.00 | 18 | 1011.6 |
| 20260503191805 | 85 | 227 | 7.0 | 17.0 | 0.00 | 0.00 | 0.00 | 18 | 1011.6 |
| 20260503191705 | 85 | 224 | 6.0 | 17.0 | 0.00 | 0.00 | 0.00 | 20 | 1011.6 |
| 20260503191505 | 85 | 222 | 6.0 | 17.0 | 0.00 | 0.00 | 0.00 | 19 | 1011.5 |
| 20260503191405 | 85 | 219 | 5.0 | 17.0 | 0.00 | 0.00 | 0.00 | 20 | 1011.5 |
| 20260503191205 | 85 | 226 | 5.0 | 17.0 | 0.00 | 0.00 | 0.00 | 20 | 1011.6 |
| 20260503191105 | 85 | 226 | 5.0 | 17.0 | 0.00 | 0.00 | 0.00 | 19 | 1011.7 |
| 20260503190904 | 85 | 226 | 5.0 | 17.0 | 0.00 | 0.00 | 0.00 | 21 | 1011.6 |
| 20260503190805 | 85 | 227 | 4.0 | 13.0 | 0.00 | 0.00 | 0.00 | 21 | 1011.7 |
| 20260503190705 | 85 | 227 | 5.0 | 13.0 | 0.00 | 0.00 | 0.00 | 21 | 1011.7 |
| 20260503190604 | 85 | 229 | 5.0 | 13.0 | 0.00 | 0.00 | 0.00 | 22 | 1011.6 |
| 20260503190504 | 85 | 231 | 5.0 | 13.0 | 0.00 | 0.00 | 0.00 | 23 | 1011.6 |
| 20260503190204 | 85 | 224 | 5.0 | 18.0 | 0.00 | 0.00 | 0.00 | 21 | 1011.6 |
| 20260503190104 | 84 | 224 | 5.0 | 18.0 | 0.00 | 0.00 | 0.00 | 21 | 1011.7 |
| 20260503190004 | 84 | 223 | 6.0 | 18.0 | 0.00 | 0.00 | 0.00 | 23 | 1011.7 |
| 20260503185904 | 84 | 220 | 6.0 | 18.0 | 0.00 | 0.00 | 0.00 | 21 | 1011.7 |
| 20260503185705 | 84 | 213 | 6.0 | 18.0 | 0.00 | 0.00 | 0.00 | 21 | 1011.8 |
| 20260503185605 | 84 | 207 | 6.0 | 18.0 | 0.00 | 0.00 | 0.00 | 24 | 1011.8 |
| 20260503185405 | 84 | 208 | 6.0 | 18.0 | 0.00 | 0.00 | 0.00 | 22 | 1011.8 |
| 20260503185305 | 84 | 205 | 6.0 | 18.0 | 0.00 | 0.00 | 0.00 | 23 | 1011.7 |
| 20260503185104 | 84 | 200 | 6.0 | 18.0 | 0.00 | 0.00 | 0.00 | 23 | 1011.9 |
| 20260503185004 | 84 | 197 | 7.0 | 18.0 | 0.00 | 0.00 | 0.00 | 22 | 1011.9 |
| 20260503184904 | 84 | 197 | 6.0 | 18.0 | 0.00 | 0.00 | 0.00 | 22 | 1011.8 |
| 20260503184805 | 84 | 198 | 6.0 | 18.0 | 0.00 | 0.00 | 0.00 | 22 | 1011.8 |
| 20260503184705 | 84 | 199 | 6.0 | 15.0 | 0.00 | 0.00 | 0.00 | 23 | 1012.0 |
| 20260503184605 | 84 | 197 | 6.0 | 15.0 | 0.00 | 0.00 | 0.00 | 23 | 1012.0 |
| 20260503184404 | 84 | 194 | 6.0 | 15.0 | 0.00 | 0.00 | 0.00 | 23 | 1012.0 |
| 20260503184304 | 84 | 195 | 6.0 | 15.0 | 0.00 | 0.00 | 0.00 | 23 | 1012.0 |
| 20260503184204 | 84 | 200 | 6.0 | 15.0 | 0.00 | 0.00 | 0.00 | 22 | 1012.0 |
| 20260503184104 | 84 | 201 | 5.0 | 15.0 | 0.00 | 0.00 | 0.00 | 22 | 1012.0 |
| 20260503184005 | 84 | 205 | 5.0 | 15.0 | 0.00 | 0.00 | 0.00 | 22 | 1012.1 |
| 20260503183905 | 84 | 207 | 5.0 | 11.0 | 0.00 | 0.00 | 0.00 | 22 | 1012.0 |
| 20260503183805 | 84 | 212 | 5.0 | 11.0 | 0.00 | 0.00 | 0.00 | 21 | 1012.0 |
| 20260503183605 | 83 | 219 | 5.0 | 13.0 | 0.00 | 0.00 | 0.00 | 23 | 1012.1 |
| 20260503183505 | 83 | 221 | 5.0 | 13.0 | 0.00 | 0.00 | 0.00 | 22 | 1012.1 |
| 20260503183404 | 83 | 220 | 5.0 | 13.0 | 0.00 | 0.00 | 0.00 | 21 | 1012.2 |
| 20260503183204 | 83 | 219 | 5.0 | 13.0 | 0.00 | 0.00 | 0.00 | 23 | 1012.2 |
| 20260503183004 | 83 | 220 | 6.0 | 15.0 | 0.00 | 0.00 | 0.00 | 22 | 1012.3 |
| 20260503182904 | 83 | 223 | 6.0 | 15.0 | 0.00 | 0.00 | 0.00 | 22 | 1012.3 |
| 20260503182804 | 83 | 219 | 6.0 | 15.0 | 0.00 | 0.00 | 0.00 | 22 | 1012.4 |
| 20260503182704 | 83 | 222 | 6.0 | 15.0 | 0.00 | 0.00 | 0.00 | 21 | 1012.3 |
| 20260503182605 | 83 | 224 | 7.0 | 15.0 | 0.00 | 0.00 | 0.00 | 21 | 1012.4 |
| 20260503182505 | 83 | 225 | 6.0 | 15.0 | 0.00 | 0.00 | 0.00 | 21 | 1012.4 |
| 20260503182305 | 83 | 230 | 7.0 | 15.0 | 0.00 | 0.00 | 0.00 | 21 | 1012.6 |
| 20260503182104 | 83 | 227 | 7.0 | 15.0 | 0.00 | 0.00 | 0.00 | 20 | 1012.5 |
| 20260503182005 | 83 | 225 | 8.0 | 16.0 | 0.00 | 0.00 | 0.00 | 21 | 1012.5 |
| 20260503181904 | 83 | 221 | 8.0 | 17.0 | 0.00 | 0.00 | 0.00 | 21 | 1012.5 |
| 20260503181804 | 83 | 223 | 8.0 | 17.0 | 0.00 | 0.00 | 0.00 | 20 | 1012.5 |
| 20260503181705 | 83 | 219 | 8.0 | 19.0 | 0.00 | 0.00 | 0.00 | 20 | 1012.5 |
| 20260503181505 | 83 | 215 | 8.0 | 19.0 | 0.00 | 0.00 | 0.00 | 20 | 1012.6 |
| 20260503181405 | 83 | 213 | 8.0 | 19.0 | 0.00 | 0.00 | 0.00 | 21 | 1012.6 |
| 20260503181304 | 83 | 209 | 8.0 | 19.0 | 0.00 | 0.00 | 0.00 | 21 | 1012.6 |
| 20260503181205 | 83 | 209 | 8.0 | 19.0 | 0.00 | 0.00 | 0.00 | 20 | 1012.6 |
| 20260503181104 | 83 | 212 | 7.0 | 19.0 | 0.00 | 0.00 | 0.00 | 21 | 1012.6 |
| 20260503181005 | 83 | 212 | 7.0 | 19.0 | 0.00 | 0.00 | 0.00 | 21 | 1012.6 |
| 20260503180904 | 83 | 211 | 7.0 | 19.0 | 0.00 | 0.00 | 0.00 | 21 | 1012.6 |
| 20260503180804 | 83 | 205 | 7.0 | 19.0 | 0.00 | 0.00 | 0.00 | 22 | 1012.7 |
| 20260503180704 | 83 | 204 | 7.0 | 17.0 | 0.00 | 0.00 | 0.00 | 22 | 1012.7 |
| 20260503180604 | 83 | 204 | 7.0 | 17.0 | 0.00 | 0.00 | 0.00 | 21 | 1012.7 |
| 20260503180504 | 83 | 208 | 7.0 | 17.0 | 0.00 | 0.00 | 0.00 | 21 | 1012.6 |
| 20260503180405 | 83 | 210 | 6.0 | 17.0 | 0.00 | 0.00 | 0.00 | 22 | 1012.6 |
| 20260503180305 | 83 | 215 | 6.0 | 16.0 | 0.00 | 0.00 | 0.00 | 22 | 1012.7 |
| 20260503180205 | 83 | 213 | 6.0 | 16.0 | 0.00 | 0.00 | 0.00 | 21 | 1012.7 |
| 20260503180104 | 82 | 211 | 6.0 | 16.0 | 0.00 | 0.00 | 0.00 | 22 | 1012.7 |
| 20260503180005 | 82 | 212 | 6.0 | 16.0 | 0.00 | 0.00 | 0.00 | 22 | 1012.7 |
| 20260503175904 | 82 | 211 | 6.0 | 16.0 | 0.00 | 0.00 | 0.00 | 21 | 1012.7 |
| 20260503175805 | 83 | 218 | 7.0 | 18.0 | 0.00 | 0.00 | 0.00 | 22 | 1012.7 |
| 20260503175705 | 82 | 221 | 7.0 | 19.0 | 0.00 | 0.00 | 0.00 | 24 | 1012.7 |
| 20260503175605 | 82 | 223 | 7.0 | 19.0 | 0.00 | 0.00 | 0.00 | 22 | 1012.8 |
| 20260503175504 | 82 | 223 | 7.0 | 19.0 | 0.00 | 0.00 | 0.00 | 22 | 1012.7 |
| 20260503175404 | 82 | 222 | 7.0 | 19.0 | 0.00 | 0.00 | 0.00 | 22 | 1012.8 |
| 20260503175305 | 82 | 219 | 6.0 | 19.0 | 0.00 | 0.00 | 0.00 | 22 | 1012.8 |
| 20260503175004 | 82 | 224 | 6.0 | 19.0 | 0.00 | 0.00 | 0.00 | 22 | 1013.0 |
| 20260503174904 | 82 | 228 | 6.0 | 19.0 | 0.00 | 0.00 | 0.00 | 21 | 1013.0 |
| 20260503174805 | 82 | 227 | 6.0 | 19.0 | 0.00 | 0.00 | 0.00 | 21 | 1013.0 |
| 20260503174705 | 82 | 227 | 5.0 | 19.0 | 0.00 | 0.00 | 0.00 | 22 | 1013.0 |
| 20260503174605 | 82 | 227 | 6.0 | 15.0 | 0.00 | 0.00 | 0.00 | 25 | 1013.0 |
| 20260503174504 | 82 | 222 | 6.0 | 15.0 | 0.00 | 0.00 | 0.00 | 26 | 1013.1 |
| 20260503174405 | 82 | 219 | 6.0 | 15.0 | 0.00 | 0.00 | 0.00 | 26 | 1013.1 |
| 20260503174304 | 82 | 221 | 6.0 | 15.0 | 0.00 | 0.00 | 0.00 | 25 | 1013.2 |
| 20260503174204 | 82 | 221 | 6.0 | 15.0 | 0.00 | 0.00 | 0.00 | 23 | 1013.1 |
| 20260503174104 | 82 | 216 | 6.0 | 15.0 | 0.00 | 0.00 | 0.00 | 24 | 1013.1 |
| 20260503174005 | 82 | 212 | 5.0 | 15.0 | 0.00 | 0.00 | 0.00 | 25 | 1013.2 |
| 20260503173905 | 82 | 209 | 5.0 | 15.0 | 0.00 | 0.00 | 0.00 | 25 | 1013.2 |
| 20260503173805 | 82 | 210 | 5.0 | 15.0 | 0.00 | 0.00 | 0.00 | 24 | 1013.3 |
| 20260503173705 | 82 | 211 | 5.0 | 12.0 | 0.00 | 0.00 | 0.00 | 26 | 1013.2 |
| 20260503173505 | 82 | 210 | 5.0 | 12.0 | 0.00 | 0.00 | 0.00 | 28 | 1013.3 |
| 20260503173405 | 82 | 212 | 5.0 | 12.0 | 0.00 | 0.00 | 0.00 | 26 | 1013.3 |
| 20260503173304 | 82 | 211 | 5.0 | 13.0 | 0.00 | 0.00 | 0.00 | 27 | 1013.3 |
| 20260503173104 | 82 | 212 | 5.0 | 13.0 | 0.00 | 0.00 | 0.00 | 26 | 1013.4 |
| 20260503172805 | 81 | 210 | 5.0 | 15.0 | 0.00 | 0.00 | 0.00 | 27 | 1013.4 |
| 20260503172705 | 81 | 207 | 5.0 | 15.0 | 0.00 | 0.00 | 0.00 | 27 | 1013.5 |
| 20260503172505 | 81 | 212 | 4.0 | 15.0 | 0.00 | 0.00 | 0.00 | 27 | 1013.5 |
| 20260503172305 | 81 | 217 | 4.0 | 15.0 | 0.00 | 0.00 | 0.00 | 29 | 1013.6 |
| 20260503172204 | 80 | 219 | 4.0 | 15.0 | 0.00 | 0.00 | 0.00 | 29 | 1013.5 |
| 20260503172005 | 80 | 212 | 4.0 | 10.0 | 0.00 | 0.00 | 0.00 | 32 | 1013.6 |
| 20260503171905 | 80 | 211 | 4.0 | 10.0 | 0.00 | 0.00 | 0.00 | 32 | 1013.6 |
| 20260503171805 | 80 | 213 | 4.0 | 10.0 | 0.00 | 0.00 | 0.00 | 31 | 1013.6 |
| 20260503171704 | 80 | 213 | 4.0 | 10.0 | 0.00 | 0.00 | 0.00 | 31 | 1013.7 |
| 20260503171605 | 80 | 208 | 4.0 | 10.0 | 0.00 | 0.00 | 0.00 | 32 | 1013.7 |
| 20260503171504 | 80 | 205 | 4.0 | 10.0 | 0.00 | 0.00 | 0.00 | 33 | 1013.7 |
| 20260503171304 | 79 | 202 | 4.0 | 10.0 | 0.00 | 0.00 | 0.00 | 31 | 1013.7 |
| 20260503171104 | 79 | 201 | 3.0 | 8.0 | 0.00 | 0.00 | 0.00 | 33 | 1013.7 |
| 20260503170904 | 79 | 209 | 3.0 | 7.0 | 0.00 | 0.00 | 0.00 | 32 | 1013.9 |
| 20260503170705 | 79 | 209 | 3.0 | 10.0 | 0.00 | 0.00 | 0.00 | 35 | 1013.9 |
| 20260503170604 | 79 | 215 | 3.0 | 10.0 | 0.00 | 0.00 | 0.00 | 33 | 1013.9 |
| 20260503170504 | 79 | 218 | 3.0 | 10.0 | 0.00 | 0.00 | 0.00 | 33 | 1013.9 |
| 20260503170305 | 79 | 224 | 3.0 | 10.0 | 0.00 | 0.00 | 0.00 | 32 | 1013.9 |
| 20260503170205 | 79 | 227 | 3.0 | 10.0 | 0.00 | 0.00 | 0.00 | 33 | 1013.9 |
| 20260503160204 | 70 | 196 | 4.0 | 10.0 | 0.00 | 0.00 | 0.00 | 47 | 1014.6 |
| 20260503160104 | 70 | 195 | 4.0 | 10.0 | 0.00 | 0.00 | 0.00 | 45 | 1014.5 |
| 20260503151004 | 65 | 199 | 4.0 | 9.0 | 0.00 | 0.00 | 0.00 | 52 | 1015.2 |
| 20260503150904 | 65 | 200 | 4.0 | 9.0 | 0.00 | 0.00 | 0.00 | 52 | 1015.2 |
| 20260503150604 | 65 | 204 | 4.0 | 9.0 | 0.00 | 0.00 | 0.00 | 54 | 1015.2 |
| 20260503150405 | 65 | 198 | 4.0 | 9.0 | 0.00 | 0.00 | 0.00 | 54 | 1015.2 |
| 20260503150304 | 65 | 195 | 4.0 | 9.0 | 0.00 | 0.00 | 0.00 | 53 | 1015.2 |
| 20260503150205 | 65 | 189 | 4.0 | 9.0 | 0.00 | 0.00 | 0.00 | 54 | 1015.2 |
| 20260503150105 | 64 | 186 | 4.0 | 9.0 | 0.00 | 0.00 | 0.00 | 54 | 1015.2 |
| 20260503140204 | 57 | 185 | 5.0 | 12.0 | 0.00 | 0.00 | 0.00 | 67 | 1015.4 |
| 20260503140105 | 57 | 186 | 5.0 | 12.0 | 0.00 | 0.00 | 0.00 | 67 | 1015.5 |
| 20260503131404 | 52 | 187 | 3.0 | 9.0 | 0.00 | 0.00 | 0.00 | 73 | 1015.7 |
| 20260503131304 | 52 | 188 | 3.0 | 9.0 | 0.00 | 0.00 | 0.00 | 73 | 1015.6 |
| 20260503131204 | 52 | 188 | 3.0 | 9.0 | 0.00 | 0.00 | 0.00 | 73 | 1015.6 |
| 20260503131104 | 51 | 188 | 3.0 | 9.0 | 0.00 | 0.00 | 0.00 | 73 | 1015.7 |
| 20260503131004 | 51 | 186 | 3.0 | 9.0 | 0.00 | 0.00 | 0.00 | 73 | 1015.7 |
| 20260503130904 | 51 | 186 | 3.0 | 9.0 | 0.00 | 0.00 | 0.00 | 72 | 1015.7 |
| 20260503130804 | 51 | 186 | 3.0 | 9.0 | 0.00 | 0.00 | 0.00 | 72 | 1015.6 |
| 20260503130704 | 51 | 187 | 3.0 | 9.0 | 0.00 | 0.00 | 0.00 | 72 | 1015.7 |
| 20260503130604 | 51 | 187 | 3.0 | 9.0 | 0.00 | 0.00 | 0.00 | 72 | 1015.7 |
| 20260503130504 | 51 | 185 | 3.0 | 8.0 | 0.00 | 0.00 | 0.00 | 73 | 1015.7 |
| 20260503130404 | 51 | 184 | 3.0 | 8.0 | 0.00 | 0.00 | 0.00 | 73 | 1015.6 |
| 20260503130204 | 51 | 181 | 3.0 | 8.0 | 0.00 | 0.00 | 0.00 | 73 | 1015.6 |
| 20260503130104 | 51 | 182 | 3.0 | 8.0 | 0.00 | 0.00 | 0.00 | 73 | 1015.7 |
| 20260503120204 | 47 | 158 | 1.0 | 4.0 | 0.00 | 0.00 | 0.00 | 78 | 1015.4 |
| 20260503120105 | 47 | 158 | 1.0 | 4.0 | 0.00 | 0.00 | 0.00 | 78 | 1015.3 |
| 20260503110704 | 48 | 168 | 1.0 | 5.0 | 0.00 | 0.00 | 0.00 | 74 | 1015.5 |
| 20260503110604 | 48 | 166 | 1.0 | 5.0 | 0.00 | 0.00 | 0.00 | 74 | 1015.5 |
| 20260503110504 | 48 | 166 | 1.0 | 5.0 | 0.00 | 0.00 | 0.00 | 74 | 1015.5 |
| 20260503110405 | 48 | 165 | 1.0 | 5.0 | 0.00 | 0.00 | 0.00 | 74 | 1015.5 |
| 20260503110204 | 48 | 166 | 1.0 | 5.0 | 0.00 | 0.00 | 0.00 | 74 | 1015.5 |
| 20260503100204 | 50 | 163 | 1.0 | 5.0 | 0.00 | 0.00 | 0.00 | 69 | 1016.0 |
| 20260503090504 | 51 | 161 | 1.0 | 5.0 | 0.00 | 0.00 | 0.00 | 65 | 1016.5 |
| 20260503090404 | 51 | 164 | 1.0 | 5.0 | 0.00 | 0.01 | 0.00 | 64 | 1016.5 |
| 20260503090204 | 51 | 166 | 1.0 | 5.0 | 0.00 | 0.01 | 0.00 | 64 | 1016.5 |
| 20260503090104 | 51 | 166 | 1.0 | 5.0 | 0.00 | 0.01 | 0.00 | 64 | 1016.6 |
| 20260503081604 | 53 | 172 | 3.0 | 8.0 | 0.00 | 0.01 | 0.00 | 60 | 1016.6 |
| 20260503081504 | 53 | 170 | 3.0 | 8.0 | 0.00 | 0.01 | 0.00 | 60 | 1016.6 |
| 20260503081404 | 53 | 171 | 3.0 | 9.0 | 0.00 | 0.01 | 0.00 | 60 | 1016.6 |
| 20260503081304 | 53 | 172 | 3.0 | 9.0 | 0.00 | 0.01 | 0.00 | 60 | 1016.7 |
| 20260503081204 | 53 | 175 | 3.0 | 9.0 | 0.00 | 0.01 | 0.00 | 60 | 1016.7 |
| 20260503081105 | 53 | 176 | 3.0 | 9.0 | 0.00 | 0.01 | 0.00 | 60 | 1016.6 |
| 20260503081005 | 53 | 178 | 3.0 | 9.0 | 0.00 | 0.01 | 0.00 | 60 | 1016.7 |
| 20260503080904 | 53 | 179 | 3.0 | 9.0 | 0.00 | 0.01 | 0.00 | 60 | 1016.7 |
| 20260503080804 | 53 | 178 | 3.0 | 9.0 | 0.00 | 0.01 | 0.00 | 60 | 1016.7 |
| 20260503080704 | 53 | 177 | 3.0 | 9.0 | 0.00 | 0.01 | 0.00 | 60 | 1016.7 |
| 20260503080504 | 53 | 178 | 3.0 | 9.0 | 0.00 | 0.01 | 0.00 | 59 | 1016.7 |
| 20260503080405 | 53 | 177 | 3.0 | 8.0 | 0.00 | 0.01 | 0.00 | 59 | 1016.7 |
| 20260503080204 | 53 | 176 | 2.0 | 9.0 | 0.00 | 0.01 | 0.00 | 60 | 1016.8 |
| 20260503080104 | 53 | 175 | 2.0 | 9.0 | 0.00 | 0.01 | 0.00 | 60 | 1016.8 |
| 20260503072904 | 52 | 163 | 1.0 | 6.0 | 0.00 | 0.01 | 0.00 | 60 | 1017.0 |
| 20260503072804 | 52 | 162 | 1.0 | 6.0 | 0.00 | 0.01 | 0.00 | 61 | 1017.0 |
| 20260503072704 | 52 | 162 | 1.0 | 5.0 | 0.00 | 0.01 | 0.00 | 60 | 1017.0 |
| 20260503072604 | 52 | 162 | 1.0 | 5.0 | 0.00 | 0.01 | 0.00 | 60 | 1017.0 |
| 20260503072504 | 52 | 160 | 1.0 | 5.0 | 0.00 | 0.01 | 0.00 | 60 | 1017.1 |
| 20260503072404 | 52 | 163 | 1.0 | 5.0 | 0.00 | 0.01 | 0.00 | 60 | 1017.1 |
| 20260503072204 | 52 | 158 | 1.0 | 5.0 | 0.00 | 0.01 | 0.00 | 60 | 1017.1 |
| 20260503072104 | 52 | 158 | 1.0 | 5.0 | 0.00 | 0.01 | 0.00 | 60 | 1017.1 |
| 20260503072004 | 51 | 159 | 1.0 | 5.0 | 0.00 | 0.01 | 0.00 | 60 | 1017.1 |
| 20260503071904 | 51 | 157 | 1.0 | 5.0 | 0.00 | 0.01 | 0.00 | 61 | 1017.1 |
| 20260503071804 | 51 | 160 | 1.0 | 5.0 | 0.00 | 0.01 | 0.00 | 61 | 1017.1 |
| 20260503071704 | 51 | 159 | 1.0 | 4.0 | 0.00 | 0.01 | 0.00 | 61 | 1017.1 |
| 20260503071604 | 51 | 159 | 1.0 | 4.0 | 0.00 | 0.01 | 0.00 | 61 | 1017.1 |
| 20260503071404 | 51 | 159 | 1.0 | 4.0 | 0.00 | 0.01 | 0.00 | 60 | 1017.1 |
| 20260503071304 | 51 | 159 | 1.0 | 4.0 | 0.00 | 0.01 | 0.00 | 61 | 1017.1 |
| 20260503071104 | 51 | 163 | 1.0 | 4.0 | 0.00 | 0.01 | 0.00 | 60 | 1017.1 |
| 20260503071004 | 51 | 162 | 1.0 | 4.0 | 0.00 | 0.01 | 0.00 | 61 | 1017.1 |
| 20260503070904 | 51 | 163 | 1.0 | 4.0 | 0.00 | 0.01 | 0.00 | 61 | 1017.1 |
| 20260503070804 | 51 | 162 | 1.0 | 4.0 | 0.00 | 0.01 | 0.00 | 61 | 1017.1 |
| 20260503070704 | 51 | 160 | 1.0 | 4.0 | 0.00 | 0.01 | 0.00 | 61 | 1017.1 |
| 20260503070605 | 51 | 161 | 1.0 | 4.0 | 0.00 | 0.01 | 0.00 | 61 | 1017.2 |
| 20260503070504 | 51 | 161 | 1.0 | 4.0 | 0.00 | 0.01 | 0.00 | 61 | 1017.2 |
| 20260503070404 | 51 | 162 | 1.0 | 4.0 | 0.00 | 0.01 | 0.00 | 61 | 1017.2 |
| 20260503070305 | 51 | 163 | 1.0 | 4.0 | 0.00 | 0.01 | 0.00 | 61 | 1017.2 |
| 20260503070204 | 51 | 163 | 1.0 | 4.0 | 0.00 | 0.01 | 0.00 | 61 | 1017.2 |
| 20260503060204 | 52 | 154 | 0.0 | 2.0 | 0.00 | 0.01 | 0.00 | 57 | 1017.6 |
| 20260503055104 | 52 | 157 | 0.0 | 3.0 | 0.00 | 0.01 | 0.00 | 56 | 1017.7 |
| 20260503055004 | 52 | 156 | 0.0 | 3.0 | 0.00 | 0.01 | 0.00 | 56 | 1017.7 |
| 20260503054904 | 52 | 156 | 0.0 | 3.0 | 0.00 | 0.01 | 0.00 | 56 | 1017.7 |
| 20260503054804 | 52 | 152 | 0.0 | 2.0 | 0.00 | 0.01 | 0.00 | 56 | 1017.7 |
| 20260503054704 | 52 | 153 | 0.0 | 2.0 | 0.00 | 0.01 | 0.00 | 55 | 1017.6 |
| 20260503054604 | 52 | 157 | 0.0 | 2.0 | 0.00 | 0.01 | 0.00 | 56 | 1017.6 |
| 20260503054504 | 52 | 159 | 0.0 | 2.0 | 0.00 | 0.01 | 0.00 | 56 | 1017.7 |
| 20260503054404 | 52 | 161 | 0.0 | 3.0 | 0.00 | 0.01 | 0.00 | 56 | 1017.7 |
| 20260503054304 | 52 | 161 | 0.0 | 3.0 | 0.00 | 0.01 | 0.00 | 55 | 1017.7 |
| 20260503054204 | 52 | 161 | 0.0 | 3.0 | 0.00 | 0.01 | 0.00 | 55 | 1017.7 |
| 20260503054104 | 52 | 162 | 0.0 | 3.0 | 0.00 | 0.01 | 0.00 | 55 | 1017.8 |
| 20260503054004 | 52 | 164 | 0.0 | 3.0 | 0.00 | 0.01 | 0.00 | 55 | 1017.7 |
| 20260503053904 | 52 | 165 | 0.0 | 3.0 | 0.00 | 0.01 | 0.00 | 55 | 1017.8 |
| 20260503053805 | 52 | 167 | 0.0 | 3.0 | 0.00 | 0.01 | 0.00 | 55 | 1017.7 |
| 20260503053704 | 52 | 167 | 0.0 | 3.0 | 0.00 | 0.01 | 0.00 | 54 | 1017.8 |
| 20260503053604 | 52 | 164 | 0.0 | 3.0 | 0.00 | 0.01 | 0.00 | 54 | 1017.8 |
| 20260503053504 | 52 | 160 | 0.0 | 3.0 | 0.00 | 0.01 | 0.00 | 54 | 1017.8 |
| 20260503053404 | 52 | 155 | 0.0 | 1.0 | 0.00 | 0.01 | 0.00 | 54 | 1017.8 |
| 20260503053304 | 52 | 155 | 0.0 | 1.0 | 0.00 | 0.01 | 0.00 | 54 | 1017.8 |
| 20260503053204 | 52 | 155 | 0.0 | 1.0 | 0.00 | 0.01 | 0.00 | 54 | 1017.9 |
| 20260503053104 | 52 | 155 | 0.0 | 1.0 | 0.00 | 0.01 | 0.00 | 53 | 1017.8 |
| 20260503053004 | 52 | 155 | 0.0 | 1.0 | 0.00 | 0.01 | 0.00 | 54 | 1017.8 |
| 20260503052904 | 52 | 156 | 0.0 | 1.0 | 0.00 | 0.01 | 0.00 | 54 | 1017.8 |
| 20260503052804 | 52 | 156 | 0.0 | 1.0 | 0.00 | 0.01 | 0.00 | 53 | 1017.8 |
| 20260503052704 | 52 | 156 | 0.0 | 1.0 | 0.00 | 0.01 | 0.00 | 54 | 1017.8 |
| 20260503052604 | 52 | 0 | 0.0 | 0.0 | 0.00 | 0.01 | 0.00 | 54 | 1017.8 |
| 20260503052305 | 52 | 152 | 0.0 | 1.0 | 0.00 | 0.01 | 0.00 | 53 | 1017.8 |
| 20260503052204 | 52 | 152 | 0.0 | 1.0 | 0.00 | 0.01 | 0.00 | 53 | 1017.8 |
| 20260503052004 | 52 | 152 | 0.0 | 1.0 | 0.00 | 0.01 | 0.00 | 54 | 1017.9 |
| 20260503051904 | 52 | 152 | 0.0 | 1.0 | 0.00 | 0.01 | 0.00 | 54 | 1017.9 |
| 20260503051704 | 52 | 153 | 0.0 | 2.0 | 0.00 | 0.01 | 0.00 | 53 | 1017.9 |
| 20260503051504 | 53 | 153 | 0.0 | 2.0 | 0.00 | 0.01 | 0.00 | 54 | 1017.9 |
| 20260503051404 | 53 | 153 | 0.0 | 2.0 | 0.00 | 0.01 | 0.00 | 54 | 1017.8 |
| 20260503051304 | 53 | 153 | 0.0 | 2.0 | 0.00 | 0.02 | 0.00 | 53 | 1017.8 |
| 20260503051204 | 53 | 153 | 0.0 | 2.0 | 0.00 | 0.02 | 0.00 | 54 | 1017.9 |
| 20260503051104 | 53 | 153 | 0.0 | 2.0 | 0.00 | 0.02 | 0.00 | 53 | 1017.8 |
| 20260503051004 | 53 | 155 | 0.0 | 2.0 | 0.00 | 0.02 | 0.00 | 53 | 1017.9 |
| 20260503050804 | 53 | 158 | 0.0 | 1.0 | 0.00 | 0.02 | 0.00 | 52 | 1017.8 |
| 20260503050604 | 53 | 158 | 0.0 | 1.0 | 0.00 | 0.02 | 0.00 | 52 | 1017.8 |
| 20260503050504 | 53 | 159 | 0.0 | 1.0 | 0.00 | 0.02 | 0.00 | 52 | 1017.8 |
| 20260503050404 | 53 | 159 | 0.0 | 1.0 | 0.00 | 0.03 | 0.00 | 52 | 1017.8 |
| 20260503050304 | 53 | 159 | 0.0 | 1.0 | 0.00 | 0.03 | 0.00 | 52 | 1017.8 |
| 20260503050204 | 53 | 159 | 0.0 | 1.0 | 0.00 | 0.03 | 0.00 | 52 | 1017.8 |
| 20260503050105 | 53 | 159 | 0.0 | 1.0 | 0.00 | 0.04 | 0.00 | 52 | 1017.8 |
| 20260503050006 | 53 | 160 | 0.0 | 1.0 | 0.00 | 0.05 | 0.00 | 52 | 1017.8 |
| 20260503045804 | 53 | 159 | 0.0 | 1.0 | 0.00 | 0.08 | 0.06 | 51 | 1017.8 |
| 20260503045704 | 53 | 159 | 0.0 | 1.0 | 0.00 | 0.08 | 0.06 | 51 | 1017.8 |
| 20260503045604 | 53 | 159 | 0.0 | 1.0 | 0.00 | 0.08 | 0.06 | 51 | 1017.8 |
| 20260503045504 | 53 | 160 | 0.0 | 1.0 | 0.00 | 0.08 | 0.06 | 51 | 1017.8 |
| 20260503045404 | 53 | 160 | 0.0 | 1.0 | 0.00 | 0.08 | 0.06 | 51 | 1017.8 |
| 20260503045305 | 53 | 160 | 0.0 | 1.0 | 0.00 | 0.08 | 0.06 | 51 | 1017.8 |
| 20260503045204 | 53 | 160 | 0.0 | 1.0 | 0.00 | 0.08 | 0.06 | 51 | 1017.8 |
| 20260503045104 | 53 | 160 | 0.0 | 1.0 | 0.00 | 0.08 | 0.06 | 51 | 1017.8 |
| 20260503045004 | 53 | 160 | 0.0 | 1.0 | 0.00 | 0.08 | 0.06 | 51 | 1017.8 |
| 20260503044904 | 53 | 159 | 0.0 | 1.0 | 0.00 | 0.08 | 0.06 | 51 | 1017.8 |
| 20260503044804 | 53 | 159 | 0.0 | 1.0 | 0.00 | 0.08 | 0.06 | 51 | 1017.8 |
| 20260503044704 | 53 | 159 | 0.0 | 1.0 | 0.00 | 0.08 | 0.06 | 51 | 1017.8 |
| 20260503044604 | 53 | 159 | 0.0 | 1.0 | 0.00 | 0.08 | 0.06 | 51 | 1017.8 |
| 20260503044404 | 53 | 0 | 0.0 | 0.0 | 0.00 | 0.08 | 0.06 | 51 | 1017.8 |
| 20260503044304 | 53 | 0 | 0.0 | 0.0 | 0.00 | 0.08 | 0.06 | 51 | 1017.8 |
| 20260503044104 | 54 | 0 | 0.0 | 0.0 | 0.00 | 0.08 | 0.06 | 52 | 1017.8 |
| 20260503044004 | 54 | 0 | 0.0 | 0.0 | 0.00 | 0.08 | 0.06 | 51 | 1017.8 |
| 20260503043904 | 54 | 0 | 0.0 | 0.0 | 0.00 | 0.08 | 0.06 | 52 | 1017.9 |
| 20260503043804 | 54 | 159 | 0.0 | 1.0 | 0.00 | 0.08 | 0.06 | 51 | 1017.8 |
| 20260503043704 | 54 | 159 | 0.0 | 1.0 | 0.00 | 0.08 | 0.06 | 51 | 1017.8 |
| 20260503043604 | 54 | 159 | 0.0 | 1.0 | 0.00 | 0.08 | 0.06 | 50 | 1017.8 |
| 20260503043504 | 54 | 175 | 0.0 | 2.0 | 0.00 | 0.08 | 0.06 | 50 | 1017.8 |
| 20260503043404 | 54 | 175 | 0.0 | 2.0 | 0.00 | 0.08 | 0.06 | 50 | 1017.8 |
| 20260503043304 | 54 | 175 | 0.0 | 2.0 | 0.00 | 0.08 | 0.06 | 50 | 1017.8 |
| 20260503043204 | 54 | 175 | 0.0 | 2.0 | 0.00 | 0.08 | 0.06 | 51 | 1017.8 |
| 20260503043104 | 54 | 171 | 0.0 | 2.0 | 0.00 | 0.08 | 0.06 | 50 | 1017.7 |
| 20260503042904 | 54 | 167 | 0.0 | 2.0 | 0.00 | 0.08 | 0.06 | 49 | 1017.7 |
| 20260503042804 | 54 | 168 | 0.0 | 2.0 | 0.00 | 0.08 | 0.06 | 50 | 1017.8 |
| 20260503042604 | 54 | 168 | 0.0 | 2.0 | 0.00 | 0.08 | 0.06 | 49 | 1017.8 |
| 20260503042504 | 54 | 160 | 0.0 | 1.0 | 0.00 | 0.08 | 0.06 | 49 | 1017.8 |
| 20260503042305 | 54 | 160 | 0.0 | 1.0 | 0.00 | 0.08 | 0.06 | 49 | 1017.8 |
| 20260503042204 | 54 | 160 | 0.0 | 1.0 | 0.00 | 0.08 | 0.06 | 49 | 1017.8 |
| 20260503042104 | 54 | 160 | 0.0 | 1.0 | 0.00 | 0.08 | 0.06 | 48 | 1017.8 |
| 20260503042004 | 54 | 161 | 0.0 | 1.0 | 0.00 | 0.08 | 0.06 | 48 | 1017.7 |
| 20260503041904 | 54 | 161 | 0.0 | 1.0 | 0.00 | 0.08 | 0.06 | 48 | 1017.8 |
| 20260503041804 | 54 | 161 | 0.0 | 1.0 | 0.00 | 0.09 | 0.06 | 49 | 1017.7 |
| 20260503041704 | 54 | 161 | 0.0 | 1.0 | 0.00 | 0.09 | 0.06 | 48 | 1017.8 |
| 20260503041604 | 54 | 161 | 0.0 | 1.0 | 0.00 | 0.09 | 0.06 | 48 | 1017.8 |
| 20260503041504 | 54 | 161 | 0.0 | 1.0 | 0.00 | 0.09 | 0.06 | 48 | 1017.8 |
| 20260503041404 | 54 | 161 | 0.0 | 1.0 | 0.00 | 0.09 | 0.06 | 48 | 1017.8 |
| 20260503041304 | 54 | 161 | 0.0 | 1.0 | 0.00 | 0.09 | 0.06 | 48 | 1017.8 |
| 20260503041204 | 55 | 161 | 0.0 | 1.0 | 0.00 | 0.09 | 0.06 | 48 | 1017.8 |
| 20260503041104 | 55 | 0 | 0.0 | 0.0 | 0.00 | 0.09 | 0.06 | 48 | 1017.8 |
| 20260503041004 | 55 | 161 | 0.0 | 1.0 | 0.00 | 0.09 | 0.06 | 48 | 1017.8 |
| 20260503040904 | 55 | 161 | 0.0 | 1.0 | 0.00 | 0.09 | 0.06 | 48 | 1017.8 |
| 20260503040804 | 55 | 161 | 0.0 | 1.0 | 0.00 | 0.09 | 0.06 | 48 | 1017.8 |
| 20260503040504 | 55 | 157 | 0.0 | 1.0 | 0.00 | 0.09 | 0.06 | 48 | 1017.8 |
| 20260503040404 | 55 | 157 | 0.0 | 1.0 | 0.00 | 0.09 | 0.06 | 48 | 1017.8 |
| 20260503040304 | 55 | 155 | 0.0 | 1.0 | 0.00 | 0.09 | 0.06 | 47 | 1017.8 |
| 20260503040104 | 55 | 153 | 0.0 | 1.0 | 0.00 | 0.09 | 0.06 | 47 | 1017.8 |
| 20260503040004 | 55 | 147 | 0.0 | 1.0 | 0.00 | 0.09 | 0.06 | 47 | 1017.8 |
| 20260503035904 | 55 | 147 | 0.0 | 1.0 | 0.00 | 0.09 | 0.06 | 47 | 1017.8 |
| 20260503035804 | 55 | 147 | 0.0 | 1.0 | 0.00 | 0.09 | 0.06 | 47 | 1017.8 |
| 20260503035704 | 56 | 147 | 0.0 | 1.0 | 0.00 | 0.09 | 0.06 | 46 | 1017.8 |
| 20260503035604 | 56 | 146 | 0.0 | 1.0 | 0.00 | 0.09 | 0.06 | 46 | 1017.8 |
| 20260503035504 | 56 | 146 | 0.0 | 1.0 | 0.00 | 0.09 | 0.06 | 46 | 1017.9 |
| 20260503035305 | 56 | 146 | 0.0 | 1.0 | 0.00 | 0.09 | 0.06 | 46 | 1017.8 |
| 20260503035204 | 56 | 146 | 0.0 | 1.0 | 0.00 | 0.09 | 0.06 | 46 | 1017.9 |
| 20260503035104 | 56 | 146 | 0.0 | 1.0 | 0.00 | 0.09 | 0.06 | 46 | 1017.8 |
| 20260503035004 | 56 | 148 | 0.0 | 1.0 | 0.00 | 0.09 | 0.06 | 46 | 1017.8 |
| 20260503034904 | 56 | 148 | 0.0 | 1.0 | 0.00 | 0.09 | 0.06 | 46 | 1017.8 |
| 20260503034804 | 56 | 149 | 0.0 | 1.0 | 0.00 | 0.09 | 0.06 | 46 | 1017.8 |
| 20260503034704 | 56 | 149 | 0.0 | 1.0 | 0.00 | 0.09 | 0.06 | 46 | 1017.8 |
| 20260503034604 | 56 | 153 | 0.0 | 1.0 | 0.00 | 0.09 | 0.06 | 47 | 1017.8 |
| 20260503034504 | 56 | 153 | 0.0 | 1.0 | 0.00 | 0.09 | 0.06 | 46 | 1017.8 |
| 20260503034404 | 56 | 153 | 0.0 | 1.0 | 0.00 | 0.09 | 0.06 | 46 | 1017.8 |
| 20260503034304 | 56 | 153 | 0.0 | 1.0 | 0.00 | 0.09 | 0.06 | 46 | 1017.8 |
| 20260503034204 | 56 | 157 | 0.0 | 1.0 | 0.00 | 0.09 | 0.06 | 46 | 1017.9 |
| 20260503034104 | 56 | 168 | 0.0 | 1.0 | 0.00 | 0.09 | 0.06 | 46 | 1017.9 |
| 20260503034004 | 56 | 168 | 0.0 | 1.0 | 0.00 | 0.09 | 0.06 | 46 | 1017.8 |
| 20260503033804 | 56 | 168 | 0.0 | 1.0 | 0.00 | 0.09 | 0.06 | 46 | 1017.8 |
| 20260503033704 | 56 | 168 | 0.0 | 1.0 | 0.00 | 0.09 | 0.06 | 45 | 1017.9 |
| 20260503033604 | 56 | 168 | 0.0 | 1.0 | 0.00 | 0.09 | 0.06 | 45 | 1017.8 |
| 20260503033504 | 56 | 168 | 0.0 | 1.0 | 0.00 | 0.09 | 0.06 | 45 | 1017.9 |
| 20260503033404 | 56 | 168 | 0.0 | 1.0 | 0.00 | 0.09 | 0.06 | 45 | 1017.9 |
| 20260503033304 | 56 | 168 | 0.0 | 1.0 | 0.00 | 0.09 | 0.06 | 45 | 1017.9 |
| 20260503033204 | 56 | 168 | 0.0 | 1.0 | 0.00 | 0.09 | 0.06 | 45 | 1017.8 |
| 20260503033104 | 56 | 168 | 0.0 | 1.0 | 0.00 | 0.09 | 0.06 | 45 | 1017.8 |
| 20260503033004 | 56 | 0 | 0.0 | 0.0 | 0.00 | 0.09 | 0.06 | 45 | 1017.8 |
| 20260503032904 | 56 | 0 | 0.0 | 0.0 | 0.00 | 0.09 | 0.06 | 46 | 1017.8 |
| 20260503032804 | 56 | 0 | 0.0 | 0.0 | 0.00 | 0.09 | 0.06 | 46 | 1017.8 |
| 20260503032504 | 55 | 0 | 0.0 | 0.0 | 0.00 | 0.09 | 0.06 | 46 | 1017.8 |
| 20260503032404 | 56 | 0 | 0.0 | 0.0 | 0.00 | 0.09 | 0.06 | 46 | 1017.8 |
| 20260503032004 | 56 | 0 | 0.0 | 0.0 | 0.00 | 0.09 | 0.06 | 46 | 1017.8 |
| 20260503031904 | 56 | 0 | 0.0 | 0.0 | 0.00 | 0.09 | 0.06 | 46 | 1017.8 |
| 20260503031804 | 56 | 0 | 0.0 | 0.0 | 0.00 | 0.09 | 0.06 | 46 | 1017.8 |
| 20260503031604 | 56 | 0 | 0.0 | 0.0 | 0.00 | 0.09 | 0.06 | 46 | 1017.8 |
| 20260503031504 | 56 | 0 | 0.0 | 0.0 | 0.00 | 0.09 | 0.06 | 46 | 1017.8 |
| 20260503031404 | 56 | 0 | 0.0 | 0.0 | 0.00 | 0.09 | 0.06 | 46 | 1017.8 |
| 20260503031104 | 56 | 0 | 0.0 | 0.0 | 0.00 | 0.09 | 0.06 | 47 | 1017.7 |
| 20260503031004 | 56 | 0 | 0.0 | 0.0 | 0.00 | 0.09 | 0.06 | 46 | 1017.7 |
| 20260503030804 | 56 | 0 | 0.0 | 0.0 | 0.00 | 0.09 | 0.06 | 46 | 1017.7 |
| 20260503030604 | 56 | 0 | 0.0 | 0.0 | 0.00 | 0.09 | 0.06 | 46 | 1017.7 |
| 20260503030504 | 56 | 0 | 0.0 | 0.0 | 0.00 | 0.09 | 0.06 | 46 | 1017.7 |
| 20260503030404 | 56 | 0 | 0.0 | 0.0 | 0.00 | 0.09 | 0.06 | 46 | 1017.7 |
| 20260503030304 | 56 | 0 | 0.0 | 0.0 | 0.00 | 0.09 | 0.06 | 45 | 1017.7 |
| 20260503030204 | 56 | 0 | 0.0 | 0.0 | 0.00 | 0.09 | 0.06 | 45 | 1017.7 |
| 20260503030104 | 56 | 0 | 0.0 | 0.0 | 0.00 | 0.09 | 0.06 | 45 | 1017.7 |
| 20260503025904 | 56 | 0 | 0.0 | 0.0 | 0.00 | 0.09 | 0.06 | 45 | 1017.7 |
| 20260503025804 | 56 | 0 | 0.0 | 0.0 | 0.00 | 0.09 | 0.06 | 45 | 1017.7 |
| 20260503025704 | 56 | 0 | 0.0 | 0.0 | 0.00 | 0.09 | 0.06 | 46 | 1017.7 |
| 20260503025604 | 56 | 0 | 0.0 | 0.0 | 0.00 | 0.09 | 0.06 | 46 | 1017.7 |
| 20260503025504 | 56 | 0 | 0.0 | 0.0 | 0.00 | 0.09 | 0.06 | 46 | 1017.6 |
| 20260503025404 | 56 | 0 | 0.0 | 0.0 | 0.00 | 0.09 | 0.06 | 46 | 1017.6 |
| 20260503025305 | 56 | 0 | 0.0 | 0.0 | 0.00 | 0.09 | 0.06 | 47 | 1017.6 |
| 20260503025004 | 56 | 182 | 0.0 | 2.0 | 0.00 | 0.09 | 0.06 | 46 | 1017.6 |
| 20260503024904 | 56 | 182 | 0.0 | 2.0 | 0.00 | 0.09 | 0.06 | 47 | 1017.6 |
| 20260503024804 | 56 | 182 | 0.0 | 2.0 | 0.00 | 0.09 | 0.06 | 46 | 1017.6 |
| 20260503024704 | 56 | 182 | 0.0 | 2.0 | 0.00 | 0.09 | 0.06 | 47 | 1017.6 |
| 20260503024604 | 56 | 182 | 0.0 | 2.0 | 0.00 | 0.09 | 0.06 | 48 | 1017.5 |
| 20260503024304 | 56 | 182 | 0.0 | 2.0 | 0.00 | 0.09 | 0.06 | 47 | 1017.5 |
| 20260503024104 | 56 | 0 | 0.0 | 0.0 | 0.00 | 0.09 | 0.06 | 49 | 1017.5 |
| 20260503024004 | 56 | 0 | 0.0 | 0.0 | 0.00 | 0.09 | 0.06 | 50 | 1017.5 |
| 20260503023904 | 56 | 0 | 0.0 | 0.0 | 0.00 | 0.09 | 0.06 | 49 | 1017.4 |
| 20260503023804 | 56 | 0 | 0.0 | 0.0 | 0.00 | 0.09 | 0.06 | 48 | 1017.4 |
| 20260503023704 | 56 | 0 | 0.0 | 0.0 | 0.00 | 0.09 | 0.06 | 48 | 1017.4 |
| 20260503023504 | 56 | 0 | 0.0 | 0.0 | 0.00 | 0.09 | 0.06 | 46 | 1017.4 |
| 20260503023404 | 56 | 0 | 0.0 | 0.0 | 0.00 | 0.09 | 0.06 | 46 | 1017.4 |
| 20260503023304 | 56 | 0 | 0.0 | 0.0 | 0.00 | 0.09 | 0.06 | 47 | 1017.4 |
| 20260503023204 | 56 | 0 | 0.0 | 0.0 | 0.00 | 0.09 | 0.06 | 47 | 1017.3 |
| 20260503023104 | 56 | 0 | 0.0 | 0.0 | 0.00 | 0.09 | 0.06 | 48 | 1017.4 |
| 20260503022904 | 56 | 0 | 0.0 | 0.0 | 0.00 | 0.09 | 0.06 | 47 | 1017.3 |
| 20260503022804 | 56 | 0 | 0.0 | 0.0 | 0.00 | 0.09 | 0.06 | 47 | 1017.3 |
| 20260503022704 | 56 | 0 | 0.0 | 0.0 | 0.00 | 0.09 | 0.06 | 47 | 1017.3 |
| 20260503022604 | 56 | 0 | 0.0 | 0.0 | 0.00 | 0.09 | 0.06 | 47 | 1017.3 |
| 20260503022504 | 56 | 0 | 0.0 | 0.0 | 0.00 | 0.09 | 0.06 | 46 | 1017.3 |
| 20260503022404 | 56 | 0 | 0.0 | 0.0 | 0.00 | 0.09 | 0.06 | 46 | 1017.3 |
| 20260503022104 | 57 | 0 | 0.0 | 0.0 | 0.00 | 0.09 | 0.06 | 46 | 1017.3 |
| 20260503022004 | 57 | 0 | 0.0 | 0.0 | 0.00 | 0.09 | 0.06 | 45 | 1017.4 |
| 20260503021804 | 57 | 0 | 0.0 | 0.0 | 0.00 | 0.09 | 0.06 | 46 | 1017.3 |
| 20260503021704 | 57 | 0 | 0.0 | 0.0 | 0.00 | 0.09 | 0.06 | 46 | 1017.4 |
| 20260503021604 | 57 | 0 | 0.0 | 0.0 | 0.00 | 0.09 | 0.06 | 44 | 1017.3 |
| 20260503021504 | 57 | 0 | 0.0 | 0.0 | 0.00 | 0.09 | 0.06 | 44 | 1017.4 |
| 20260503021404 | 57 | 0 | 0.0 | 0.0 | 0.00 | 0.09 | 0.06 | 45 | 1017.3 |
| 20260503021304 | 57 | 0 | 0.0 | 0.0 | 0.00 | 0.09 | 0.06 | 44 | 1017.4 |
| 20260503021204 | 57 | 0 | 0.0 | 0.0 | 0.00 | 0.09 | 0.06 | 45 | 1017.4 |
| 20260503021104 | 57 | 0 | 0.0 | 0.0 | 0.00 | 0.09 | 0.06 | 45 | 1017.4 |
| 20260503021004 | 57 | 0 | 0.0 | 0.0 | 0.00 | 0.09 | 0.06 | 45 | 1017.4 |
| 20260503020904 | 57 | 0 | 0.0 | 0.0 | 0.00 | 0.09 | 0.06 | 45 | 1017.4 |
| 20260503020804 | 58 | 0 | 0.0 | 0.0 | 0.00 | 0.09 | 0.06 | 44 | 1017.4 |
| 20260503020704 | 58 | 0 | 0.0 | 0.0 | 0.00 | 0.09 | 0.06 | 44 | 1017.4 |
| 20260503020604 | 58 | 0 | 0.0 | 0.0 | 0.00 | 0.09 | 0.06 | 43 | 1017.3 |
| 20260503020404 | 58 | 0 | 0.0 | 0.0 | 0.00 | 0.09 | 0.06 | 42 | 1017.3 |
| 20260503020304 | 58 | 0 | 0.0 | 0.0 | 0.00 | 0.09 | 0.06 | 43 | 1017.3 |
| 20260503020204 | 58 | 0 | 0.0 | 0.0 | 0.00 | 0.09 | 0.06 | 42 | 1017.3 |
| 20260503020104 | 58 | 0 | 0.0 | 0.0 | 0.00 | 0.09 | 0.06 | 42 | 1017.4 |
| 20260503020004 | 58 | 0 | 0.0 | 0.0 | 0.00 | 0.09 | 0.06 | 41 | 1017.4 |
| 20260503015904 | 58 | 0 | 0.0 | 0.0 | 0.00 | 0.09 | 0.06 | 41 | 1017.3 |
| 20260503015804 | 58 | 0 | 0.0 | 0.0 | 0.00 | 0.09 | 0.06 | 41 | 1017.4 |
| 20260503015504 | 59 | 0 | 0.0 | 0.0 | 0.00 | 0.09 | 0.06 | 41 | 1017.3 |
| 20260503015404 | 59 | 0 | 0.0 | 0.0 | 0.00 | 0.09 | 0.06 | 41 | 1017.3 |
| 20260503015305 | 59 | 0 | 0.0 | 0.0 | 0.00 | 0.09 | 0.06 | 40 | 1017.3 |